CZ-6A DEB, 61134

Orbit data source: Space-Track

CZ-6A DEB, 61134 is space debris in LEO originally from a launch on Tue, 06 Aug 2024 UTC launched from the Taiyaun Space Center, China (TSC). Debris objects in space refer to the collection of defunct objects orbiting the Earth. Examples of debris include non-operational satellites, rocket bodies, and fragments generated from explosions, collisions, or faulty payload assembly.

Loading next visibility...
Identifier
61134, 2024-140QC
Orbit
LEO
Country
Flag of CNCN / PRC
Related business
Manufacturer
SAST
Mission
Spacecraft
Bus & Motor
Unknown
Mass
Unknown
Launch date (UTC)
2024-08-06 (2 years ago)
Launch vehicle
Unknown
Launch site
Taiyaun Space Center, China (TSC)
Object type
Payload
Rocket body
Debris
Shape & HBR
Unknown shape, 0.1 m
Radar Cross Section
Medium (>0.1 m² and <1 m²)

Expand to show TLE details & history
Last TLE update: 16 hours ago

TLE from 16 hours ago
0 CZ-6A DEB
1 61134U 24140QC  26171.30020962  .00002826  00000-0  14760-2 0  9993
2 61134  88.9815 274.5182 0110667 239.3107 119.7137 14.11120351 93876
Epoch: 2026-06-20T07:12Z
TLE epoch observation values (Epoch: 2026-06-20T07:12:18.111Z)
Latitude
0.00003°
Longitude
-102.07407°
Altitude
898.931 km
Speed
7.382 km/s
True Right ascension
18h 18m 04s
True Declination
0° 00' 00"
Sunlit
Object was in full shadow at epoch
Visualization orbit readout
Latitude
Unknown
Longitude
Unknown
Altitude
Unknown
Speed
Unknown
Apparent Right ascension
Unknown
Apparent Declination
Unknown
Sunlit
N/A
Visualization observer readout
Local Sidereal Time
10:20:23
Azimuth
Unknown
Elevation
Unknown
Doppler factor
Unknown
Orbital elements
Apogee altitude
932.523 km
Perigee altitude
772.485 km
Semi-major axis
7,230.641 km
Eccentricity
0.01107
Inclination
88.9815°
RAAN
274.5182°
Arg. of periapsis
239.3107°
True anomaly
120.80754°
Mean anomaly
119.7137°
Eccentric anomaly
120.26137°
Mean motion
3.53003 °/min
Orbital period
101.98 mins
BSTAR
0.001476
Loading maneuver chart data...
Computing Atmospheric mass density...
Loading historical data...
Loading historical data...
Loading historical data...
Loading historical data...
Loading historical data...
Loading historical data...
Loading historical data...

Documentation

Showing up to 5 results
|